Location: Asheville, NC
(35.6000°N, 82.5500°W)
Time: 13:38:47
(UTC-05:00)

Vanguard 1 Rocket - Pass Details

Date: 14 February 2018
Orbit: 655 x 4222 km, 34.3° (Epoch: 21 February)

Event Time Altitude Azimuth Distance (km) Brightness Sun altitude
Rises 23:08:19 0° 222° (SW) 6,738 11.9 -58.5°
Reaches altitude 10° 23:12:19 10° 218° (SW) 6,100 11.5 -59.1°
Enters shadow 23:15:10 18° 215° (SW) 5,693 11.3 -59.5°
Exits shadow 23:55:23 15° 78° (ENE) 6,628 11.6 -64.6°
Drops below altitude 10° 23:57:52 10° 76° (ENE) 6,981 11.8 -64.8°
Sets 00:02:47 0° 73° (ENE) 7,714 12.1 -65.2°
